Showing default

OPS 5712 (P/L 160), 2826

Orbit data source: Space-Track

OPS 5712 (P/L 160), 2826 is a payload satellite owned by NRL (US) in LEO that was launched on Wed, 31 May 1967 UTC via a THOR SLV-2 AGENA D launch vehicle from the Air Force Western Test Range (AFWTR). Payload-class satellites include a variety of spacecraft equipped with specific instruments for various scientific and technological missions. These include communications satellites like Starlink; space stations such as the ISS; scientific satellites like the Hubble; Earth observation satellites from companies like Planet Labs, Umbra, and HawkEye 360; GPS; miniature CubeSats for education and research; and military/defense satellites.

Loading next visibility...
Identifier
2826, 1967-053A
Orbit
LEO
Last TLE update
12 hours ago
Origin
Manufacturer
NRL
Mission
Operational Defense Calibration
Bus & Motor
NRL 14"?, Unknown motor
Mass
5 kg wet, 5 kg dry
Launch date (UTC)
1967-05-31 (58 years ago)
Launch vehicle
THOR SLV-2 AGENA D
Launch site
Air Force Western Test Range (AFWTR)
Object type
Payload
Rocket body
Debris
Shape & HBR
Sphere, 0.51 m
Radar Cross Section
0.204 m², Medium (>0.1 m² and < 1m²)

Expand to show TLE details & history

TLE from 12 hours ago
0 OPS 5712 (P/L 160)
1 02826U 67053A   25128.82094214  .00008979  00000-0  15002-2 0  9990
2 02826  69.9195 303.2734 0005072 247.1076 112.9533 14.70144264  6656
Epoch: 2025-05-08T19:42Z
Definitive object data (Epoch: 2025-05-08T19:42:09.4Z)
Latitude
-0.00002°
Longitude
140.84828°
Altitude
664.389 km
Speed
7.525 km/s
True Right ascension
20h 13m 05s
True Declination
0° 00' 00"
Sunlit
Object was in daylight at TLE epoch
Visualization TLE readout
Latitude
39.44141°
Longitude
-57.77065°
Altitude
666.723 km
Speed
7.527 km/s
Apparent Right ascension
05h 31m 42s
Apparent Declination
2° 18' 10"
Sunlit
Object is in daylight
Visualization observer readout
Local Sidereal Time
15:54:28
Azimuth
326.23° NNW
Elevation
-42.271°
Doppler factor
1
Orbital elements
Apogee altitude
662.159 km
Perigee altitude
655.021 km
Semi-major axis
7,036.727 km
Eccentricity
0.0005072
Inclination
69.9195°
RAAN
303.2734°
Arg. of periapsis
247.1076°
True anomaly
113.00681°
Mean anomaly
112.9533°
Eccentric anomaly
112.98005°
Mean motion
3.67694 °/min
BSTAR
0.0015002
Orbital period
97.91 mins
Loading maneuver chart data...
Loading SW <> Apogee altitude chart data...
Loading historical data...
Loading historical data...
Loading historical data...
Loading historical data...
Loading historical data...
Loading historical data...
Loading historical data...

OPS 5712 (P/L 160) Visibility forecast

Observer location: undefined°, undefined°

Span
Click to sort rows by Start time (UTC) header in descending order
Start Az.
Max El. time (UTC)
Max El. Az.
Max El.
End time (UTC)
End Az.
7 mins2025-05-09 12:09:25.302Z155.346° SSE2025-05-09 12:12:25.302Z110.18° ESE22.953°2025-05-09 12:16:25.302Z50.792° ENE
6 mins2025-05-09 13:50:25.302Z253.885° W2025-05-09 13:52:25.302Z293.703° NW28.299°2025-05-09 13:56:25.302Z2.92° NNE
7 mins2025-05-09 22:23:25.302Z343.839° N2025-05-09 22:26:25.302Z36.434° NE42.161°2025-05-09 22:30:25.302Z145.214° SSE
|